This is the latest recevied weather packets stored in our database for station/object VE6KEE-13. If no packets are shown the sender has not sent any weather packets the latest 10 day(s).
| Time | Temp. | Humidity | Pressure | Rain* | Wind** | Luminosity | Snow |
|---|---|---|---|---|---|---|---|
| 1777680978 | 22.22° C | 15% | 1015.1 hPa | 0 mm | - | - | - |
| 1777680078 | 22.78° C | 15% | 1015.2 hPa | 0 mm | - | - | - |
| 1777679178 | 22.78° C | 14% | 1015.2 hPa | 0 mm | - | - | - |
| 1777678282 | 23.33° C | 14% | 1015.2 hPa | 0 mm | - | - | - |
| 1777677377 | 23.89° C | 13% | 1015.3 hPa | 0 mm | - | - | - |
| 1777676477 | 25° C | 12% | 1015.3 hPa | 0 mm | - | - | - |
| 1777675577 | 25.56° C | 11% | 1015.3 hPa | 0 mm | - | - | - |
| 1777674673 | 26.67° C | 11% | 1015.3 hPa | 0 mm | - | - | - |
| 1777673772 | 27.22° C | 10% | 1015.2 hPa | 0 mm | - | - | - |
| 1777672877 | 27.78° C | 10% | 1015.2 hPa | 0 mm | - | - | - |
| 1777671972 | 27.78° C | 9% | 1015.3 hPa | 0 mm | - | - | - |
| 1777671072 | 28.33° C | 9% | 1015.3 hPa | 0 mm | - | - | - |
| 1777670171 | 27.78° C | 10% | 1015.4 hPa | 0 mm | - | - | - |
| 1777669276 | 27.78° C | 10% | 1015.6 hPa | 0 mm | - | - | - |
| 1777668371 | 27.78° C | 11% | 1015.5 hPa | 0 mm | - | - | - |
| 1777667471 | 27.78° C | 12% | 1015.5 hPa | 0 mm | - | - | - |
| 1777666566 | 26.67° C | 13% | 1015.7 hPa | 0 mm | - | - | - |
| 1777665666 | 26.67° C | 13% | 1015.7 hPa | 0 mm | - | - | - |
| 1777664766 | 26.11° C | 14% | 1015.9 hPa | 0 mm | - | - | - |
| 1777663866 | 25.56° C | 14% | 1016 hPa | 0 mm | - | - | - |
| 1777662965 | 25° C | 15% | 1016.1 hPa | 0 mm | - | - | - |
| 1777662070 | 24.44° C | 16% | 1016 hPa | 0 mm | - | - | - |
| 1777661161 | 23.89° C | 16% | 1016.3 hPa | 0 mm | - | - | - |
| 1777660265 | 23.89° C | 16% | 1016.4 hPa | 0 mm | - | - | - |
| 1777659360 | 23.89° C | 16% | 1016.6 hPa | 0 mm | - | - | - |
* Rain since midnight (hover to see other rain measurements)
** Current wind speed in m/s (hover to see current wind gust speed)